Temp
-11 -11 -11 -11 -11 -11 -11 -11 -11 -11 -11 -11 -11 -11 -11 -11 -11 -11 -11 -12 -12 -12 -13 -13 -13 -13 -13 -13 -12 -12 -12 -12 -11 -12 -13 -11 -12 -11 -11 -11 -10 -10 -10 -9 -9
-11 -11 -11 -12 -12 -12 -12 -12 -11 -11 -11 -11 -11 -11 -11 -11 -11 -11 -11 -12 -12 -12 -12 -13 -13 -14 -13 -13 -13 -12 -12 -12 -12 -12 -12 -12 -11 -10 -10 -11 -11 -10 -10 -9 -9
-11 -11 -11 -12 -12 -12 -12 -12 -12 -12 -12 -12 -12 -12 -11 -11 -11 -12 -12 -11 -12 -12 -12 -12 -14 -14 -14 -13 -13 -12 -11 -12 -12 -13 -12 -12 -11 -10 -9 -10 -11 -10 -10 -9 -9
-11 -11 -11 -12 -12 -12 -12 -12 -12 -12 -12 -12 -12 -12 -12 -12 -12 -12 -12 -12 -12 -12 -12 -12 -13 -13 -13 -13 -12 -13 -12 -13 -14 -13 -12 -12 -12 -11 -10 -11 -11 -11 -10 -9 -9
-11 -12 -12 -12 -12 -12 -12 -12 -12 -12 -12 -12 -12 -12 -12 -12 -13 -13 -12 -12 -12 -12 -13 -13 -13 -13 -12 -13 -13 -13 -13 -13 -14 -14 -13 -12 -11 -12 -10 -10 -10 -11 -10 -9 -9
-12 -12 -12 -12 -13 -13 -12 -13 -13 -13 -12 -12 -12 -12 -12 -12 -12 -13 -13 -13 -12 -12 -13 -13 -13 -14 -14 -14 -14 -12 -13 -13 -13 -14 -13 -12 -12 -12 -11 -10 -10 -11 -10 -10 -9
-13 -13 -13 -13 -13 -13 -13 -13 -13 -13 -13 -13 -13 -12 -12 -14 -15 -17 -16 -14 -13 -13 -12 -13 -13 -15 -14 -14 -14 -14 -14 -13 -13 -13 -12 -12 -12 -11 -12 -10 -10 -11 -10 -10 -9
-13 -13 -13 -13 -13 -13 -13 -13 -13 -13 -13 -13 -13 -13 -15 -18 -20 -21 -21 -21 -21 -16 -14 -14 -14 -14 -15 -15 -14 -15 -15 -13 -13 -13 -12 -12 -12 -11 -12 -11 -10 -11 -10 -10 -10
-14 -14 -14 -14 -14 -14 -13 -13 -14 -13 -13 -14 -15 -18 -18 -20 -20 -21 -21 -21 -21 -22 -18 -17 -15 -14 -16 -16 -15 -15 -14 -13 -13 -13 -13 -12 -12 -12 -12 -11 -10 -11 -10 -10 -10
-14 -14 -14 -14 -14 -14 -14 -14 -14 -14 -15 -17 -18 -19 -19 -19 -20 -21 -22 -22 -22 -23 -22 -20 -16 -16 -16 -17 -15 -14 -13 -13 -13 -12 -13 -13 -12 -13 -12 -11 -11 -11 -10 -10 -10
-15 -15 -15 -15 -14 -14 -14 -14 -14 -15 -18 -19 -19 -19 -20 -20 -22 -23 -23 -23 -23 -23 -23 -21 -19 -16 -15 -14 -14 -14 -14 -13 -12 -13 -13 -13 -12 -12 -13 -11 -11 -11 -11 -10 -10
-15 -15 -15 -15 -15 -15 -14 -14 -15 -16 -18 -19 -20 -20 -20 -20 -22 -23 -23 -23 -23 -23 -23 -22 -19 -15 -16 -15 -15 -15 -14 -14 -13 -14 -13 -13 -13 -13 -13 -12 -11 -11 -11 -10 -10
-15 -15 -15 -15 -15 -15 -15 -15 -16 -18 -19 -19 -19 -19 -20 -20 -22 -22 -23 -23 -24 -24 -23 -23 -20 -18 -17 -16 -15 -15 -14 -14 -13 -14 -13 -13 -13 -13 -12 -12 -11 -11 -11 -11 -10
-16 -16 -15 -16 -16 -15 -15 -15 -17 -19 -18 -19 -19 -19 -19 -20 -21 -22 -22 -23 -23 -23 -23 -20 -20 -18 -17 -17 -15 -15 -14 -15 -15 -14 -13 -13 -12 -13 -12 -12 -11 -11 -10 -11 -11
-16 -16 -16 -16 -16 -16 -15 -16 -19 -19 -18 -19 -19 -19 -20 -20 -20 -20 -22 -22 -22 -20 -20 -20 -19 -17 -16 -15 -15 -15 -14 -15 -15 -14 -13 -13 -13 -11 -12 -11 -11 -10 -10 -11 -11
-16 -16 -16 -16 -16 -16 -16 -17 -19 -19 -19 -19 -19 -19 -19 -19 -19 -20 -20 -22 -20 -19 -19 -19 -18 -17 -16 -16 -15 -15 -15 -14 -14 -14 -14 -13 -12 -11 -11 -10 -11 -11 -11 -10 -11
-16 -16 -16 -16 -16 -16 -16 -17 -19 -19 -19 -19 -18 -19 -19 -19 -19 -20 -19 -21 -20 -18 -18 -18 -17 -16 -16 -16 -16 -16 -15 -15 -14 -15 -13 -13 -12 -9 -11 -11 -11 -12 -12 -11 -11
-16 -17 -17 -17 -17 -16 -16 -18 -19 -19 -19 -19 -18 -19 -19 -19 -19 -19 -20 -20 -19 -18 -17 -17 -16 -16 -15 -15 -15 -15 -15 -15 -15 -14 -13 -13 -11 -9 -11 -11 -11 -12 -13 -12 -11
-16 -16 -17 -17 -17 -17 -17 -17 -19 -20 -19 -19 -18 -18 -19 -19 -19 -19 -19 -20 -18 -18 -17 -17 -16 -16 -15 -15 -15 -15 -15 -15 -15 -14 -14 -12 -10 -9 -11 -11 -11 -11 -12 -12 -11
-16 -17 -18 -18 -17 -17 -17 -18 -19 -20 -19 -19 -19 -19 -18 -19 -18 -19 -18 -19 -18 -18 -17 -17 -17 -16 -15 -15 -15 -15 -14 -15 -14 -14 -14 -12 -11 -11 -12 -12 -12 -11 -11 -12 -12
-17 -17 -17 -18 -18 -18 -17 -18 -19 -20 -20 -19 -19 -19 -19 -19 -19 -19 -19 -18 -18 -17 -17 -17 -16 -16 -15 -15 -15 -15 -15 -15 -14 -14 -14 -13 -12 -12 -12 -12 -12 -12 -12 -12 -12
-17 -17 -18 -18 -18 -18 -18 -18 -19 -20 -20 -19 -19 -19 -19 -19 -19 -19 -19 -18 -18 -18 -17 -17 -16 -16 -16 -15 -15 -15 -15 -15 -14 -14 -14 -13 -13 -13 -12 -12 -12 -12 -12 -12 -12
-17 -18 -18 -18 -18 -18 -18 -18 -18 -20 -20 -20 -19 -19 -19 -19 -19 -19 -19 -18 -18 -18 -17 -17 -17 -17 -16 -16 -16 -15 -15 -15 -15 -15 -14 -14 -14 -13 -13 -12 -12 -12 -12 -12 -12
-17 -18 -18 -18 -18 -18 -18 -18 -18 -19 -21 -20 -20 -19 -19 -19 -19 -19 -19 -19 -18 -18 -18 -18 -17 -17 -17 -16 -17 -16 -15 -15 -15 -15 -15 -14 -14 -14 -14 -13 -12 -12 -12 -12 -12
-17 -18 -18 -19 -19 -19 -18 -18 -18 -19 -20 -21 -20 -20 -19 -19 -19 -19 -19 -19 -19 -19 -18 -18 -17 -17 -17 -17 -17 -16 -16 -16 -15 -15 -15 -15 -15 -15 -14 -14 -14 -13 -13 -13 -12
-18 -18 -18 -19 -19 -19 -19 -19 -18 -19 -20 -21 -21 -20 -20 -19 -19 -19 -19 -20 -19 -19 -19 -19 -18 -18 -18 -17 -17 -17 -16 -16 -16 -15 -15 -15 -15 -15 -15 -14 -15 -14 -14 -13 -13
-17 -18 -18 -18 -19 -19 -19 -19 -19 -19 -20 -20 -22 -21 -21 -20 -19 -19 -19 -19 -20 -19 -19 -19 -18 -18 -18 -18 -17 -17 -17 -17 -16 -16 -15 -15 -15 -15 -15 -15 -14 -14 -14 -14 -14
Height
5748 5747 5744 5742 5740 5738 5737 5736 5736 5735 5734 5734 5734 5735 5736 5738 5739 5740 5745 5747 5747 5749 5751 5752 5753 5756 5760 5764 5770 5776 5782 5793 5803 5809 5817 5816 5819 5819 5822 5825 5826 5831 5832 5834 5838
5740 5738 5735 5733 5731 5730 5728 5727 5726 5725 5724 5724 5724 5725 5726 5727 5730 5733 5733 5736 5739 5740 5743 5744 5747 5749 5752 5757 5763 5769 5774 5786 5797 5806 5807 5811 5815 5813 5817 5821 5824 5828 5828 5831 5834
5731 5728 5725 5723 5722 5720 5718 5716 5715 5715 5714 5714 5714 5713 5713 5714 5719 5722 5722 5724 5725 5726 5730 5734 5738 5741 5743 5750 5755 5759 5765 5779 5789 5796 5797 5804 5810 5811 5813 5817 5822 5824 5825 5828 5831
5722 5720 5717 5715 5713 5709 5707 5705 5704 5704 5702 5702 5701 5700 5700 5702 5707 5704 5705 5708 5707 5711 5714 5718 5725 5730 5735 5739 5746 5750 5758 5770 5781 5787 5790 5796 5804 5810 5811 5816 5816 5818 5821 5825 5828
5713 5710 5708 5705 5702 5699 5697 5695 5693 5692 5690 5688 5687 5686 5687 5689 5687 5678 5685 5689 5691 5696 5702 5708 5713 5718 5725 5731 5736 5740 5751 5762 5772 5778 5784 5791 5798 5805 5808 5810 5813 5816 5817 5821 5824
5705 5702 5698 5696 5692 5689 5687 5684 5682 5680 5677 5675 5673 5672 5671 5669 5660 5656 5659 5667 5668 5675 5685 5693 5702 5708 5711 5718 5727 5736 5745 5753 5761 5766 5777 5785 5791 5793 5802 5803 5810 5813 5814 5818 5822
5696 5692 5688 5685 5683 5680 5677 5673 5671 5668 5664 5660 5656 5653 5650 5641 5634 5625 5624 5629 5640 5650 5662 5674 5685 5691 5699 5707 5715 5722 5733 5739 5750 5759 5768 5777 5783 5788 5797 5798 5806 5808 5810 5815 5818
5686 5683 5679 5675 5672 5669 5666 5662 5659 5655 5650 5643 5636 5630 5626 5624 5616 5609 5602 5605 5609 5617 5633 5649 5662 5675 5683 5698 5703 5710 5719 5726 5742 5751 5761 5769 5777 5789 5791 5794 5802 5805 5808 5811 5815
5678 5674 5670 5666 5663 5659 5656 5652 5648 5642 5635 5626 5619 5615 5616 5609 5601 5595 5590 5597 5594 5598 5606 5623 5640 5659 5672 5683 5691 5695 5706 5719 5734 5742 5754 5758 5771 5782 5783 5790 5795 5800 5803 5807 5811
5669 5666 5661 5658 5653 5650 5647 5643 5637 5630 5622 5614 5611 5606 5601 5593 5584 5578 5573 5578 5582 5587 5590 5601 5616 5635 5654 5667 5673 5691 5703 5712 5727 5737 5744 5748 5764 5773 5774 5781 5790 5794 5797 5802 5807
5660 5658 5654 5649 5645 5642 5639 5634 5629 5622 5614 5607 5603 5596 5585 5579 5569 5565 5560 5560 5564 5568 5573 5586 5598 5611 5642 5664 5682 5687 5696 5705 5721 5731 5737 5741 5753 5765 5766 5773 5781 5785 5789 5795 5802
5653 5650 5646 5641 5638 5634 5630 5625 5620 5615 5611 5602 5594 5585 5577 5570 5561 5557 5551 5551 5552 5559 5566 5574 5586 5622 5642 5658 5667 5674 5684 5698 5711 5720 5724 5732 5739 5755 5760 5767 5773 5780 5784 5790 5794
5645 5642 5638 5635 5631 5626 5623 5619 5612 5607 5605 5599 5590 5581 5573 5566 5557 5553 5550 5547 5547 5550 5559 5571 5592 5613 5630 5644 5656 5665 5680 5692 5705 5711 5716 5725 5732 5744 5748 5756 5762 5771 5778 5783 5788
5638 5636 5633 5629 5626 5621 5617 5611 5606 5602 5599 5595 5587 5578 5572 5564 5558 5552 5547 5551 5547 5554 5563 5576 5591 5606 5624 5641 5655 5663 5676 5686 5694 5703 5710 5720 5720 5732 5741 5748 5754 5761 5768 5774 5780
5633 5631 5628 5622 5620 5616 5613 5605 5601 5599 5595 5592 5585 5578 5573 5568 5561 5555 5553 5551 5552 5559 5572 5583 5592 5611 5626 5646 5654 5661 5673 5683 5690 5697 5702 5709 5714 5728 5732 5736 5746 5754 5762 5768 5775
5630 5627 5623 5618 5615 5612 5606 5599 5598 5597 5591 5589 5584 5579 5574 5570 5565 5560 5557 5558 5562 5568 5577 5589 5601 5615 5631 5642 5649 5657 5668 5677 5683 5689 5690 5702 5707 5714 5721 5731 5742 5750 5755 5764 5771
5625 5623 5618 5614 5612 5608 5601 5595 5596 5592 5591 5589 5585 5580 5576 5575 5573 5573 5570 5568 5571 5577 5589 5597 5606 5618 5628 5636 5643 5648 5660 5669 5673 5676 5683 5696 5700 5707 5718 5726 5736 5746 5749 5756 5764
5622 5619 5615 5611 5607 5603 5597 5592 5591 5590 5588 5587 5584 5583 5579 5579 5577 5578 5578 5575 5575 5585 5592 5600 5608 5617 5623 5631 5639 5646 5654 5658 5666 5672 5680 5688 5690 5701 5712 5719 5725 5733 5741 5747 5750
5618 5615 5612 5609 5603 5599 5594 5588 5587 5587 5587 5586 5585 5583 5582 5581 5581 5582 5580 5581 5583 5587 5595 5600 5607 5615 5619 5626 5635 5640 5647 5657 5665 5671 5676 5682 5686 5692 5705 5711 5716 5723 5730 5735 5743
5615 5612 5608 5605 5601 5596 5592 5586 5583 5584 5585 5585 5584 5583 5583 5582 5582 5582 5585 5586 5587 5590 5596 5599 5607 5611 5616 5624 5631 5638 5648 5654 5660 5666 5670 5675 5678 5686 5699 5704 5709 5717 5727 5733 5737
5612 5609 5606 5601 5598 5594 5590 5584 5580 5581 5583 5584 5583 5582 5582 5582 5583 5583 5585 5587 5587 5591 5596 5600 5603 5609 5616 5621 5627 5634 5639 5647 5654 5659 5664 5667 5671 5678 5688 5692 5699 5706 5713 5719 5726
5609 5606 5602 5598 5596 5591 5588 5582 5578 5577 5579 5581 5581 5580 5580 5581 5581 5582 5583 5585 5587 5590 5596 5599 5602 5608 5613 5619 5626 5630 5637 5643 5647 5654 5659 5662 5666 5669 5678 5684 5690 5696 5702 5709 5716
5604 5601 5598 5595 5591 5589 5586 5581 5576 5574 5576 5578 5579 5580 5578 5580 5581 5581 5583 5584 5587 5591 5594 5597 5603 5607 5611 5616 5618 5626 5632 5637 5642 5646 5652 5657 5660 5662 5667 5676 5681 5687 5693 5699 5707
5599 5596 5595 5591 5588 5586 5583 5580 5575 5572 5572 5574 5577 5578 5578 5579 5580 5581 5583 5584 5585 5588 5591 5596 5600 5604 5608 5613 5617 5621 5627 5631 5635 5640 5645 5649 5653 5659 5662 5667 5673 5679 5683 5688 5694
5597 5594 5591 5589 5586 5584 5581 5578 5574 5571 5569 5571 5573 5575 5577 5578 5578 5579 5580 5583 5584 5585 5589 5594 5598 5602 5605 5610 5614 5617 5621 5624 5629 5634 5638 5642 5647 5651 5655 5659 5664 5669 5674 5680 5685
5595 5591 5588 5586 5584 5582 5579 5575 5573 5570 5567 5567 5569 5571 5573 5575 5576 5578 5579 5581 5583 5585 5587 5590 5595 5598 5602 5606 5610 5614 5615 5619 5623 5628 5632 5636 5640 5641 5647 5651 5655 5659 5664 5669 5675
5592 5589 5587 5585 5583 5581 5578 5574 5571 5569 5566 5564 5564 5566 5569 5572 5574 5576 5577 5579 5581 5584 5585 5588 5592 5594 5598 5601 5606 5610 5612 5614 5618 5621 5626 5630 5633 5637 5641 5643 5647 5651 5654 5660 5665
Wind_Speed
40 42 43 43 42 41 41 42 42 42 44 45 47 47 47 47 47 47 43 44 44 44 41 40 35 40 36 40 44 57 57 53 47 42 36 39 33 31 27 22 21 18 22 24 23
42 43 43 42 39 40 40 41 42 44 46 47 47 47 48 49 49 48 50 49 48 47 47 46 41 41 40 39 51 51 49 53 45 41 42 41 38 37 32 26 21 19 23 22 22
41 41 41 41 40 40 41 41 44 44 45 46 47 48 50 52 50 50 54 55 55 53 52 54 49 44 45 44 47 51 45 55 51 44 48 43 40 38 33 29 22 19 22 22 22
40 41 41 42 42 41 41 42 43 43 43 45 47 50 52 55 54 57 59 60 64 61 60 58 56 50 46 49 50 52 48 58 57 50 52 46 41 38 31 29 27 23 24 22 23
41 44 43 39 40 41 41 41 40 42 45 47 50 53 55 56 58 65 64 65 68 69 66 63 62 57 49 47 48 51 45 56 62 54 50 47 43 38 33 34 30 24 25 23 22
45 44 41 40 40 40 39 39 41 44 46 49 52 56 58 63 72 75 77 75 75 74 74 71 66 62 58 53 49 53 54 59 62 57 52 49 47 44 39 38 31 28 27 23 23
45 43 40 39 39 38 39 40 43 45 48 52 56 60 63 66 67 63 76 81 88 86 81 77 72 68 63 58 52 55 50 50 65 60 54 50 50 49 40 39 34 30 30 25 23
43 41 40 37 37 37 38 40 43 46 49 56 60 64 52 40 36 39 42 43 44 80 92 86 78 73 68 56 56 58 52 60 58 65 56 55 54 47 44 43 38 33 32 27 24
42 40 37 36 35 34 37 40 43 46 51 57 51 36 26 37 43 48 51 43 46 47 71 77 79 76 71 64 61 60 59 59 55 61 62 62 54 45 47 44 39 36 34 30 27
40 38 35 33 31 33 37 40 43 47 50 36 32 31 34 42 34 38 42 42 50 45 45 65 80 80 74 65 65 53 56 63 57 50 58 65 60 47 50 47 41 37 35 32 29
36 34 32 29 30 32 36 40 43 43 26 30 30 36 33 39 30 28 30 39 44 51 47 63 79 85 78 67 50 56 55 57 64 57 64 71 68 55 52 49 45 42 39 35 32
33 31 29 27 30 32 35 39 41 39 14 27 30 33 32 35 23 21 20 25 36 44 44 63 76 78 71 68 56 58 56 59 54 56 67 68 66 64 55 51 48 44 40 36 38
29 28 25 26 30 32 35 38 34 31 17 24 32 27 27 23 16 13 13 14 17 39 49 62 65 72 73 72 71 54 56 54 55 56 62 59 61 59 66 59 52 49 41 40 40
26 25 24 26 29 31 33 33 27 22 16 22 28 23 20 6 16 12 9 12 20 37 51 33 58 71 67 63 64 56 55 53 55 47 56 64 58 54 60 66 57 52 48 44 43
23 22 23 24 27 29 30 28 20 14 20 21 25 17 10 15 12 13 13 13 47 32 31 45 56 63 62 53 53 56 50 44 49 52 54 56 70 46 52 71 63 58 55 47 44
22 21 22 23 26 28 28 22 17 16 17 18 21 11 9 17 15 4 26 44 30 8 15 34 54 56 52 52 46 52 43 38 37 41 50 57 59 47 50 49 59 57 59 50 45
20 20 21 23 25 25 26 19 13 13 16 14 17 10 13 12 12 21 40 22 12 8 29 32 47 53 48 46 50 57 46 37 38 42 48 51 62 49 41 51 44 42 53 55 48
20 21 21 23 25 23 24 15 13 11 13 11 9 11 9 6 5 8 19 34 17 11 20 25 44 40 48 63 55 58 55 57 46 46 46 48 56 53 48 47 44 44 51 52 53
20 20 21 24 23 23 23 16 12 10 10 11 5 5 4 8 5 13 19 23 8 14 25 27 24 45 35 47 52 49 53 47 46 49 44 51 56 54 45 49 51 46 49 54 49
22 20 20 23 23 22 21 15 12 13 10 9 7 6 2 4 1 5 23 26 21 15 25 26 22 32 23 33 36 38 44 46 49 47 39 45 55 57 46 48 49 44 41 46 48
23 22 21 22 23 21 20 17 11 16 13 8 9 9 7 10 4 5 12 25 24 30 22 29 23 16 37 31 31 38 42 41 42 48 41 42 49 52 47 41 48 46 49 48 47
21 20 20 20 21 21 21 19 14 14 17 12 8 8 7 9 9 7 7 15 25 26 24 23 31 17 27 37 29 28 38 34 39 39 38 40 47 48 55 51 39 39 45 47 54
19 19 20 20 19 21 20 19 15 12 17 16 11 7 8 9 8 5 6 11 20 29 23 25 25 12 14 17 20 28 22 29 25 27 37 29 25 44 51 54 53 45 43 45 44
20 21 20 18 19 20 19 18 16 12 15 16 14 10 9 9 11 10 8 9 14 20 27 27 24 18 16 15 15 22 23 25 23 24 26 29 33 32 28 43 53 55 50 47 46
22 20 20 18 17 18 18 18 18 13 10 17 15 14 13 11 8 12 12 9 6 9 20 30 28 21 24 20 11 16 21 30 21 21 23 22 21 28 34 36 36 38 43 41 40
21 22 19 17 16 18 17 17 18 16 11 12 18 18 17 17 14 12 14 12 8 5 12 20 29 28 31 32 32 15 19 24 24 28 30 25 22 25 33 37 35 35 37 38 38
21 21 20 18 15 17 18 16 16 17 12 10 17 20 21 18 18 17 13 15 11 9 6 17 19 21 25 26 27 26 17 17 24 27 33 32 27 26 29 33 36 38 40 42 43
Wind_Direction
284 285 283 279 274 274 273 271 269 268 266 265 263 263 261 260 260 261 257 254 255 257 258 253 249 240 236 227 228 217 217 208 209 208 207 217 218 209 209 204 209 189 209 209 211
287 288 286 280 279 280 280 273 271 270 266 265 265 265 262 260 258 258 260 254 252 254 254 252 243 243 234 226 229 230 232 209 206 212 213 218 215 210 206 206 204 192 209 207 208
294 294 293 292 291 288 283 274 272 271 270 269 269 267 264 261 259 256 253 254 248 248 249 250 243 237 232 231 224 227 227 204 203 212 214 215 218 222 209 207 204 200 210 204 207
297 295 292 294 294 289 282 278 277 275 273 273 271 269 267 266 264 259 250 245 247 244 243 243 243 237 234 228 229 231 223 209 203 214 216 214 216 226 213 209 205 203 210 204 207
296 298 298 299 293 289 286 282 279 278 279 278 276 275 274 270 260 256 249 245 240 241 240 241 241 237 235 231 226 228 216 222 203 214 219 215 214 225 217 216 209 205 213 207 206
292 296 299 297 294 292 286 283 283 285 284 284 280 277 274 271 268 262 253 243 241 237 236 237 236 235 233 228 225 225 229 223 212 211 215 217 218 216 220 218 209 205 216 208 204
294 298 300 297 297 293 288 288 290 291 290 286 285 285 282 279 274 264 257 248 238 235 232 232 232 228 231 228 223 224 225 218 209 211 212 214 217 219 217 223 213 202 214 212 206
299 301 301 300 297 294 293 295 296 293 292 294 294 289 286 282 272 272 261 250 244 234 230 231 228 225 225 228 222 217 225 213 212 209 209 216 213 216 220 223 219 205 213 210 212
301 302 301 300 298 296 298 299 297 298 303 301 292 289 302 305 284 270 267 262 251 239 227 225 221 222 218 215 224 218 217 217 213 209 207 217 212 213 222 222 219 211 211 210 211
302 303 302 301 297 301 303 301 303 308 307 294 294 298 304 304 298 277 267 254 249 235 231 210 212 213 212 216 218 215 220 216 210 208 213 214 212 211 220 221 220 214 212 213 208
302 301 301 300 304 307 307 307 311 309 300 298 311 318 316 310 294 287 271 248 241 227 227 201 202 206 210 210 212 216 224 225 217 225 220 215 212 209 220 220 216 214 213 211 209
303 303 304 307 309 312 312 313 312 312 301 317 331 325 326 326 290 285 278 263 237 227 207 195 200 202 203 206 210 221 217 220 221 218 220 220 221 210 218 220 217 217 213 213 213
305 307 307 310 316 317 317 314 312 312 290 318 329 328 343 326 320 297 283 266 252 211 197 188 193 192 195 201 206 215 213 222 215 218 218 220 223 215 213 216 217 218 211 216 218
309 310 309 317 321 321 317 315 309 311 295 328 339 336 334 346 326 296 256 271 244 184 175 187 195 189 189 202 209 216 211 217 220 222 224 224 225 223 217 216 217 216 211 215 221
311 308 313 321 322 322 319 316 303 312 319 325 348 350 351 338 328 318 197 197 168 139 167 190 184 187 195 202 213 216 217 218 222 228 225 225 229 221 228 220 215 218 214 217 223
310 308 317 321 324 323 324 315 294 318 333 338 350 354 14 21 13 11 146 167 143 148 139 178 176 182 190 205 204 206 207 206 216 225 230 226 223 226 221 220 220 224 228 221 225
307 312 320 321 324 327 327 318 278 318 330 336 352 342 8 35 30 120 148 180 205 171 165 178 189 194 203 199 206 211 205 211 212 230 234 228 223 223 224 228 223 222 226 226 223
317 316 321 319 324 330 329 323 269 289 322 335 358 358 28 6 26 141 192 208 209 187 157 171 190 193 208 216 217 210 211 223 225 227 230 219 223 225 233 223 224 216 220 228 229
318 316 319 319 325 330 328 322 268 269 304 322 306 324 355 36 45 182 199 210 201 217 169 189 176 205 204 204 204 211 212 214 220 221 222 223 227 231 224 226 224 222 219 227 233
315 311 313 320 327 332 333 324 262 250 278 302 304 255 214 357 353 256 201 213 225 206 184 199 209 196 208 200 207 207 205 213 219 228 226 225 226 228 227 226 225 230 224 229 234
314 315 317 324 330 334 336 329 297 246 253 277 292 261 229 248 283 214 173 202 223 223 184 203 211 197 190 200 219 222 214 224 228 234 237 234 229 228 225 224 227 233 230 230 222
323 315 317 323 332 337 339 335 320 255 237 251 274 284 246 227 274 250 232 202 208 209 221 197 222 217 207 207 212 214 216 227 226 226 228 235 237 235 228 229 223 226 231 227 220
323 325 324 326 332 338 340 343 334 274 236 237 250 273 277 237 253 272 236 221 211 213 212 225 212 201 176 240 209 206 214 212 214 207 214 215 228 234 235 232 229 227 234 236 237
337 332 329 328 328 338 343 348 347 316 239 232 234 248 280 247 241 251 257 247 237 231 222 220 219 228 209 204 228 217 210 207 228 216 220 223 224 229 232 234 235 237 241 246 249
341 339 336 326 328 337 343 351 351 335 266 232 223 227 238 254 248 257 254 248 221 243 234 222 217 230 239 233 265 242 230 236 236 217 217 231 230 230 233 237 230 228 233 234 237
345 343 338 331 327 330 339 350 352 346 321 253 229 221 219 229 245 264 250 238 229 204 221 243 231 238 241 251 256 251 241 236 241 229 236 247 251 243 230 227 232 236 235 234 234
348 346 342 338 328 328 333 344 351 351 338 303 238 230 228 223 225 236 252 241 236 235 225 221 233 235 238 242 237 240 242 239 244 238 238 249 250 254 242 239 237 235 239 236 234